Location: ?ernice
(48.8383°N, 14.3803°E)
Time: 16:38:21
(UTC+00:00)

Cosmos 841 Rocket - Pass Details

Date: 23 May 2024
Orbit: 744 x 770 km, 74.0° (Epoch: 13 June)

Event Time Altitude Azimuth Distance (km) Brightness Sun altitude
Rises 00:24:51 0° 336° (NNW) 3,232 7.4 -17.9°
Reaches altitude 10° 00:27:14 10° 337° (NNW) 2,306 6.6 -17.8°
Maximum altitude 00:32:29 90° 258° (WSW) 773 3.4 -17.5°
Enters shadow 00:36:22 19° 159° (SSE) 1,787 5.0 -17.2°
